,,,PA_Meas_PMT16A,,PR_Meas_QMR101_102,,RH_Meas_QMH101,,SR_Meas_QMS101,,TA_Meas_QMH101,,GenWind,,GenWind,
date,time,status,PA,status,PR,status,RH,status,SR,status,TA,status,DirAvg,status,SpdAvg,
2009-03-30, 00:00:04,VALID,1009.24,VALID,0,VALID,84.9814,VALID,0,VALID,22.7004,VALID,311,VALID,0,
2009-03-30, 00:01:04,VALID,1009.23,VALID,0,VALID,85.0195,VALID,0,VALID,22.6809,VALID,311,VALID,0,
2009-03-30, 00:02:04,VALID,1009.2,VALID,0,VALID,85.0119,VALID,0,VALID,22.6614,VALID,311,VALID,0,
2009-03-30, 00:03:04,VALID,1009.19,VALID,0,VALID,85.0195,VALID,0,VALID,22.6614,VALID,311,VALID,0,
2009-03-30, 00:04:04,VALID,1009.19,VALID,0,VALID,85.0348,VALID,0,VALID,22.6614,VALID,311,VALID,0,
2009-03-30, 00:05:04,VALID,1009.16,VALID,0,VALID,85.0577,VALID,0,VALID,22.642,VALID,311,VALID,0,
2009-03-30, 00:06:04,VALID,1009.13,VALID,0,VALID,85.0805,VALID,0,VALID,22.6632,VALID,311,VALID,0,
2009-03-30, 00:07:04,VALID,1009.12,VALID,0,VALID,85.0958,VALID,0,VALID,22.642,VALID,311,VALID,0,
2009-03-30, 00:08:04,VALID,1009.07,VALID,0,VALID,85.111,VALID,0,VALID,22.6225,VALID,27,VALID,0,
2009-03-30, 00:09:04,VALID,1009.1,VALID,0,VALID,85.111,VALID,0,VALID,22.642,VALID,30,VALID,0,
2009-03-30, 00:10:04,VALID,1009.08,VALID,0,VALID,85.1263,VALID,0,VALID,22.642,VALID,40,VALID,0,
2009-03-30, 00:11:04,VALID,1009.08,VALID,0,VALID,85.1568,VALID,0,VALID,22.642,VALID,40,VALID,0,
2009-03-30, 00:12:04,VALID,1009.07,VALID,0,VALID,85.172,VALID,0,VALID,22.642,VALID,40,VALID,0,
2009-03-30, 00:13:04,VALID,1009.09,VALID,0,VALID,85.2025,VALID,0,VALID,22.642,VALID,40,VALID,0,
2009-03-30, 00:14:04,VALID,1009.07,VALID,0,VALID,85.1949,VALID,0,VALID,22.642,VALID,40,VALID,0,
2009-03-30, 00:15:04,VALID,1009.1,VALID,0,VALID,85.2102,VALID,0,VALID,22.6614,VALID,40,VALID,0,
2009-03-30, 00:16:04,VALID,1009.09,VALID,0,VALID,85.2407,VALID,0,VALID,22.6809,VALID,40,VALID,0,
2009-03-30, 00:17:04,VALID,1009.09,VALID,0,VALID,85.2483,VALID,0,VALID,22.7199,VALID,40,VALID,0,
2009-03-30, 00:18:04,VALID,1009.12,VALID,0,VALID,85.2712,VALID,0,VALID,22.7199,VALID,40,VALID,0,
2009-03-30, 00:19:04,VALID,1009.1,VALID,0,VALID,85.2635,VALID,0,VALID,22.7199,VALID,40,VALID,0,
2009-03-30, 00:20:04,VALID,1009.09,VALID,0,VALID,85.2559,VALID,0,VALID,22.7004,VALID,40,VALID,0,
2009-03-30, 00:21:04,VALID,1009.07,VALID,0,VALID,85.2712,VALID,0,VALID,22.6809,VALID,40,VALID,0,
2009-03-30, 00:22:04,VALID,1009.05,VALID,0,VALID,85.2559,VALID,0,VALID,22.6809,VALID,40,VALID,0,
2009-03-30, 00:23:04,VALID,1009.04,VALID,0,VALID,85.2788,VALID,0,VALID,22.6614,VALID,40,VALID,0,
2009-03-30, 00:24:04,VALID,1009,VALID,0,VALID,85.2788,VALID,0,VALID,22.6225,VALID,40,VALID,0,
2009-03-30, 00:25:04,VALID,1009.02,VALID,0,VALID,85.2712,VALID,0,VALID,22.6225,VALID,40,VALID,0,
2009-03-30, 00:26:04,VALID,1008.97,VALID,0,VALID,85.2864,VALID,0,VALID,22.6225,VALID,40,VALID,0,
2009-03-30, 00:27:04,VALID,1008.97,VALID,0,VALID,85.2941,VALID,0,VALID,22.603,VALID,40,VALID,0,
2009-03-30, 00:28:04,VALID,1008.96,VALID,0,VALID,85.3017,VALID,0,VALID,22.603,VALID,40,VALID,0,
2009-03-30, 00:29:04,VALID,1008.94,VALID,0,VALID,85.2864,VALID,0,VALID,22.603,VALID,40,VALID,0,
2009-03-30, 00:30:04,VALID,1008.94,VALID,0,VALID,85.3093,VALID,0,VALID,22.6225,VALID,40,VALID,0,
2009-03-30, 00:31:04,VALID,1008.9,VALID,0,VALID,85.3322,VALID,0,VALID,22.642,VALID,40,VALID,0,
2009-03-30, 00:32:04,VALID,1008.89,VALID,0,VALID,85.3398,VALID,0,VALID,22.6809,VALID,40,VALID,0,
2009-03-30, 00:33:04,VALID,1008.87,VALID,0,VALID,85.3551,VALID,0,VALID,22.6809,VALID,40,VALID,0,
2009-03-30, 00:34:04,VALID,1008.83,VALID,0,VALID,85.3474,VALID,0,VALID,22.7004,VALID,40,VALID,0,
2009-03-30, 00:35:04,VALID,1008.83,VALID,0,VALID,85.3474,VALID,0,VALID,22.7004,VALID,40,VALID,0,
2009-03-30, 00:36:04,VALID,1008.82,VALID,0,VALID,85.3398,VALID,0,VALID,22.6809,VALID,40,VALID,0,
2009-03-30, 00:37:04,VALID,1008.84,VALID,0,VALID,85.3551,VALID,0,VALID,22.6809,VALID,40,VALID,0,
2009-03-30, 00:38:04,VALID,1008.82,VALID,0,VALID,85.3322,VALID,0,VALID,22.6809,VALID,40,VALID,0,
2009-03-30, 00:39:04,VALID,1008.8,VALID,0,VALID,85.3322,VALID,0,VALID,22.6614,VALID,40,VALID,0,
2009-03-30, 00:40:04,VALID,1008.79,VALID,0,VALID,85.3322,VALID,0,VALID,22.642,VALID,40,VALID,0,
2009-03-30, 00:41:04,VALID,1008.76,VALID,0,VALID,85.3398,VALID,0,VALID,22.642,VALID,40,VALID,0,
2009-03-30, 00:42:04,VALID,1008.71,VALID,0,VALID,85.3169,VALID,0,VALID,22.603,VALID,40,VALID,0,
2009-03-30, 00:43:04,VALID,1008.68,VALID,0,VALID,85.3169,VALID,0,VALID,22.5818,VALID,40,VALID,0,
2009-03-30, 00:44:04,VALID,1008.69,VALID,0,VALID,85.3017,VALID,0.105969,VALID,22.5429,VALID,40,VALID,0,
2009-03-30, 00:45:04,VALID,1008.61,VALID,0,VALID,85.3169,VALID,0.105969,VALID,22.5429,VALID,40,VALID,0,
2009-03-30, 00:46:04,VALID,1008.59,VALID,0,VALID,85.3169,VALID,0.105969,VALID,22.5429,VALID,40,VALID,0,
2009-03-30, 00:47:04,VALID,1008.58,VALID,0,VALID,85.3017,VALID,0.105969,VALID,22.5234,VALID,40,VALID,0,
2009-03-30, 00:48:04,VALID,1008.55,VALID,0,VALID,85.3169,VALID,0.105969,VALID,22.5234,VALID,40,VALID,0,
2009-03-30, 00:49:04,VALID,1008.57,VALID,0,VALID,85.3322,VALID,0,VALID,22.5039,VALID,40,VALID,0,
2009-03-30, 00:50:04,VALID,1008.55,VALID,0,VALID,85.3093,VALID,0,VALID,22.4844,VALID,40,VALID,0,
2009-03-30, 00:51:04,VALID,1008.51,VALID,0,VALID,85.3093,VALID,0.105969,VALID,22.4844,VALID,40,VALID,0,
2009-03-30, 00:52:04,VALID,1008.48,VALID,0,VALID,85.3322,VALID,0.105969,VALID,22.465,VALID,40,VALID,0,
2009-03-30, 00:53:04,VALID,1008.49,VALID,0,VALID,85.3093,VALID,0,VALID,22.465,VALID,40,VALID,0,
2009-03-30, 00:54:04,VALID,1008.48,VALID,0,VALID,85.3474,VALID,0,VALID,22.4861,VALID,72,VALID,0,
2009-03-30, 00:55:04,VALID,1008.42,VALID,0,VALID,85.3474,VALID,0,VALID,22.465,VALID,72,VALID,0,
2009-03-30, 00:56:04,VALID,1008.42,VALID,0,VALID,85.3474,VALID,0,VALID,22.4632,VALID,73,VALID,0,
2009-03-30, 00:57:04,VALID,1008.4,VALID,0,VALID,85.3779,VALID,0.105969,VALID,22.5056,VALID,76,VALID,0.489844,
2009-03-30, 00:58:04,VALID,1008.39,VALID,0,VALID,85.3703,VALID,0,VALID,22.465,VALID,76,VALID,0.369141,
2009-03-30, 00:59:04,VALID,1008.36,VALID,0,VALID,85.3551,VALID,0,VALID,22.4667,VALID,76,VALID,0.41875,
2009-03-30, 01:00:04,VALID,1008.34,VALID,0,VALID,85.3703,VALID,0,VALID,22.4667,VALID,88,VALID,0.605469,
2009-03-30, 01:01:04,VALID,1008.33,VALID,0,VALID,85.3551,VALID,0,VALID,22.4878,VALID,83,VALID,0.442187,
2009-03-30, 01:02:04,VALID,1008.34,VALID,0,VALID,85.3703,VALID,0,VALID,22.4667,VALID,83,VALID,0,
2009-03-30, 01:03:04,VALID,1008.32,VALID,0,VALID,85.3856,VALID,0,VALID,22.4861,VALID,83,VALID,0,
2009-03-30, 01:04:04,VALID,1008.33,VALID,0,VALID,85.3856,VALID,0,VALID,22.4861,VALID,83,VALID,0,
2009-03-30, 01:05:04,VALID,1008.31,VALID,0,VALID,85.3856,VALID,0,VALID,22.5056,VALID,83,VALID,0,
2009-03-30, 01:06:04,VALID,1008.32,VALID,0,VALID,85.3856,VALID,0,VALID,22.4861,VALID,83,VALID,0,
2009-03-30, 01:07:04,VALID,1008.31,VALID,0,VALID,85.3856,VALID,0,VALID,22.4861,VALID,83,VALID,0,
2009-03-30, 01:08:04,VALID,1008.27,VALID,0,VALID,85.3856,VALID,0,VALID,22.4861,VALID,83,VALID,0,
2009-03-30, 01:09:04,VALID,1008.27,VALID,0,VALID,85.4008,VALID,0,VALID,22.4861,VALID,83,VALID,0,
2009-03-30, 01:10:04,VALID,1008.24,VALID,0,VALID,85.3932,VALID,0,VALID,22.4667,VALID,83,VALID,0,
2009-03-30, 01:11:04,VALID,1008.23,VALID,0,VALID,85.3856,VALID,0,VALID,22.4472,VALID,83,VALID,0,
2009-03-30, 01:12:04,VALID,1008.2,VALID,0,VALID,85.3703,VALID,0,VALID,22.4277,VALID,83,VALID,0,
2009-03-30, 01:13:04,VALID,1008.19,VALID,0,VALID,85.3856,VALID,0,VALID,22.4082,VALID,106,VALID,0,
2009-03-30, 01:14:04,VALID,1008.2,VALID,0,VALID,85.3703,VALID,0,VALID,22.3481,VALID,136,VALID,0,
2009-03-30, 01:15:04,VALID,1008.16,VALID,0,VALID,85.3627,VALID,0,VALID,22.3303,VALID,148,VALID,0,
2009-03-30, 01:16:04,VALID,1008.14,VALID,0,VALID,85.3627,VALID,0,VALID,22.3108,VALID,145,VALID,0.791016,
2009-03-30, 01:17:04,VALID,1008.13,VALID,0,VALID,85.3551,VALID,0,VALID,22.3303,VALID,144,VALID,0.900781,
2009-03-30, 01:18:04,VALID,1008.15,VALID,0,VALID,85.3856,VALID,0,VALID,22.3498,VALID,137,VALID,0.660547,
2009-03-30, 01:19:04,VALID,1008.12,VALID,0,VALID,85.3779,VALID,0,VALID,22.3498,VALID,132,VALID,0.616406,
2009-03-30, 01:20:04,VALID,1008.12,VALID,0,VALID,85.3932,VALID,0,VALID,22.3693,VALID,130,VALID,0.370703,
2009-03-30, 01:21:04,VALID,1008.12,VALID,0,VALID,85.3703,VALID,0,VALID,22.3481,VALID,127,VALID,0.366797,
2009-03-30, 01:22:04,VALID,1008.11,VALID,0,VALID,85.3779,VALID,0,VALID,22.3481,VALID,116,VALID,0.404687,
2009-03-30, 01:23:04,VALID,1008.14,VALID,0,VALID,85.3779,VALID,0,VALID,22.3887,VALID,116,VALID,0.0195313,
2009-03-30, 01:24:04,VALID,1008.14,VALID,0,VALID,85.3703,VALID,0,VALID,22.4082,VALID,116,VALID,0,
2009-03-30, 01:25:04,VALID,1008.15,VALID,0,VALID,85.3703,VALID,0,VALID,22.4082,VALID,116,VALID,0,
2009-03-30, 01:26:04,VALID,1008.16,VALID,0,VALID,85.3856,VALID,0,VALID,22.4082,VALID,116,VALID,0,
2009-03-30, 01:27:04,VALID,1008.18,VALID,0,VALID,85.3856,VALID,0,VALID,22.3887,VALID,116,VALID,0,
2009-03-30, 01:28:04,VALID,1008.21,VALID,0,VALID,85.3856,VALID,0,VALID,22.3887,VALID,116,VALID,0,
2009-03-30, 01:29:04,VALID,1008.19,VALID,0,VALID,85.3627,VALID,0,VALID,22.3887,VALID,116,VALID,0,
2009-03-30, 01:30:04,VALID,1008.19,VALID,0,VALID,85.3627,VALID,0,VALID,22.3887,VALID,116,VALID,0,
2009-03-30, 01:31:04,VALID,1008.21,VALID,0,VALID,85.3703,VALID,0,VALID,22.3481,VALID,116,VALID,0,
2009-03-30, 01:32:04,VALID,1008.16,VALID,0,VALID,85.3856,VALID,0,VALID,22.3498,VALID,116,VALID,0,
2009-03-30, 01:33:04,VALID,1008.14,VALID,0,VALID,85.3703,VALID,0,VALID,22.3498,VALID,116,VALID,0,
2009-03-30, 01:34:04,VALID,1008.14,VALID,0,VALID,85.3627,VALID,0,VALID,22.3303,VALID,116,VALID,0,
2009-03-30, 01:35:04,VALID,1008.12,VALID,0,VALID,85.3551,VALID,0,VALID,22.3303,VALID,116,VALID,0,
2009-03-30, 01:36:04,VALID,1008.15,VALID,0,VALID,85.3703,VALID,0,VALID,22.3498,VALID,116,VALID,0,
2009-03-30, 01:37:04,VALID,1008.12,VALID,0,VALID,85.3856,VALID,0,VALID,22.3303,VALID,116,VALID,0,
2009-03-30, 01:38:04,VALID,1008.12,VALID,0,VALID,85.4008,VALID,0,VALID,22.3303,VALID,116,VALID,0,
2009-03-30, 01:39:04,VALID,1008.11,VALID,0,VALID,85.3932,VALID,0,VALID,22.2897,VALID,116,VALID,0,
2009-03-30, 01:40:04,VALID,1008.09,VALID,0,VALID,85.3856,VALID,0,VALID,22.2914,VALID,116,VALID,0,
2009-03-30, 01:41:04,VALID,1008.08,VALID,0,VALID,85.3779,VALID,0,VALID,22.2719,VALID,116,VALID,0.0175781,
2009-03-30, 01:42:04,VALID,1008.03,VALID,0,VALID,85.3932,VALID,0,VALID,22.2524,VALID,116,VALID,0.464063,
2009-03-30, 01:43:04,VALID,1008.02,VALID,0,VALID,85.3627,VALID,0,VALID,22.2134,VALID,116,VALID,0.373047,
2009-03-30, 01:44:04,VALID,1008.03,VALID,0,VALID,85.3779,VALID,0,VALID,22.194,VALID,116,VALID,0.0683594,
2009-03-30, 01:45:04,VALID,1008.03,VALID,0,VALID,85.3856,VALID,0,VALID,22.1745,VALID,117,VALID,0,
2009-03-30, 01:46:04,VALID,1008.03,VALID,0,VALID,85.3856,VALID,0,VALID,22.155,VALID,155,VALID,0,
2009-03-30, 01:47:04,VALID,1008.02,VALID,0,VALID,85.4084,VALID,0,VALID,22.155,VALID,178,VALID,0,
2009-03-30, 01:48:04,VALID,1008.03,VALID,0,VALID,85.3932,VALID,0,VALID,22.1533,VALID,172,VALID,0.818359,
2009-03-30, 01:49:04,VALID,1008.05,VALID,0,VALID,85.4161,VALID,0,VALID,22.1745,VALID,173,VALID,0.682813,
2009-03-30, 01:50:04,VALID,1008.03,VALID,0,VALID,85.4161,VALID,0,VALID,22.194,VALID,170,VALID,0.550781,
2009-03-30, 01:51:04,VALID,1008.06,VALID,0,VALID,85.4313,VALID,0,VALID,22.1745,VALID,170,VALID,0.319141,
2009-03-30, 01:52:04,VALID,1008.04,VALID,0,VALID,85.4237,VALID,0,VALID,22.155,VALID,175,VALID,0,
2009-03-30, 01:53:04,VALID,1008.05,VALID,0,VALID,85.4542,VALID,0,VALID,22.155,VALID,175,VALID,0,
2009-03-30, 01:54:04,VALID,1008.05,VALID,0,VALID,85.4466,VALID,0,VALID,22.1339,VALID,175,VALID,0,
2009-03-30, 01:55:04,VALID,1008.04,VALID,0,VALID,85.4542,VALID,0,VALID,22.1355,VALID,175,VALID,0,
2009-03-30, 01:56:04,VALID,1008.02,VALID,0,VALID,85.4694,VALID,0,VALID,22.1339,VALID,175,VALID,0,
2009-03-30, 01:57:04,VALID,1008.02,VALID,0,VALID,85.4694,VALID,0,VALID,22.1355,VALID,175,VALID,0,
2009-03-30, 01:58:04,VALID,1008.01,VALID,0,VALID,85.4771,VALID,0,VALID,22.1355,VALID,175,VALID,0,
2009-03-30, 01:59:04,VALID,1007.96,VALID,0,VALID,85.4847,VALID,0,VALID,22.1355,VALID,175,VALID,0,
2009-03-30, 02:00:04,VALID,1007.93,VALID,0,VALID,85.4923,VALID,0,VALID,22.1144,VALID,166,VALID,0,
2009-03-30, 02:01:04,VALID,1007.91,VALID,0,VALID,85.4999,VALID,0,VALID,22.0949,VALID,166,VALID,0,
2009-03-30, 02:02:04,VALID,1007.9,VALID,0,VALID,85.4923,VALID,0,VALID,22.1161,VALID,166,VALID,0,
2009-03-30, 02:03:04,VALID,1007.9,VALID,0,VALID,85.5152,VALID,0,VALID,22.0949,VALID,166,VALID,0,
2009-03-30, 02:04:04,VALID,1007.87,VALID,0,VALID,85.5152,VALID,0,VALID,22.1161,VALID,166,VALID,0,
2009-03-30, 02:05:04,VALID,1007.86,VALID,0,VALID,85.5076,VALID,0,VALID,22.1161,VALID,166,VALID,0,
2009-03-30, 02:06:04,VALID,1007.9,VALID,0,VALID,85.5152,VALID,0,VALID,22.1161,VALID,166,VALID,0,
2009-03-30, 02:07:04,VALID,1007.89,VALID,0,VALID,85.5304,VALID,0,VALID,22.1355,VALID,166,VALID,0,
2009-03-30, 02:08:04,VALID,1007.92,VALID,0,VALID,85.5457,VALID,0,VALID,22.1355,VALID,166,VALID,0,
2009-03-30, 02:09:04,VALID,1007.94,VALID,0,VALID,85.5762,VALID,0,VALID,22.1144,VALID,166,VALID,0,
2009-03-30, 02:10:04,VALID,1007.94,VALID,0,VALID,85.5457,VALID,0,VALID,22.155,VALID,166,VALID,0,
2009-03-30, 02:11:04,VALID,1007.95,VALID,0,VALID,85.561,VALID,0,VALID,22.155,VALID,166,VALID,0,
2009-03-30, 02:12:04,VALID,1007.95,VALID,0,VALID,85.5762,VALID,0,VALID,22.155,VALID,166,VALID,0,
2009-03-30, 02:13:04,VALID,1007.96,VALID,0,VALID,85.5838,VALID,0,VALID,22.1745,VALID,166,VALID,0,
2009-03-30, 02:14:04,VALID,1007.92,VALID,0,VALID,85.5762,VALID,0,VALID,22.1745,VALID,166,VALID,0,
2009-03-30, 02:15:04,VALID,1007.93,VALID,0,VALID,85.5915,VALID,0,VALID,22.155,VALID,166,VALID,0,
2009-03-30, 02:16:04,VALID,1007.92,VALID,0,VALID,85.5686,VALID,0,VALID,22.155,VALID,166,VALID,0,
2009-03-30, 02:17:04,VALID,1007.92,VALID,0,VALID,85.5838,VALID,0,VALID,22.1355,VALID,166,VALID,0,
2009-03-30, 02:18:04,VALID,1007.92,VALID,0,VALID,85.5915,VALID,0,VALID,22.1161,VALID,166,VALID,0,
2009-03-30, 02:19:04,VALID,1007.89,VALID,0,VALID,85.6067,VALID,0,VALID,22.1355,VALID,166,VALID,0,
2009-03-30, 02:20:04,VALID,1007.91,VALID,0,VALID,85.6067,VALID,0,VALID,22.1144,VALID,166,VALID,0,
2009-03-30, 02:21:04,VALID,1007.93,VALID,0,VALID,85.6067,VALID,0,VALID,22.1355,VALID,166,VALID,0,
2009-03-30, 02:22:04,VALID,1007.92,VALID,0,VALID,85.6067,VALID,0,VALID,22.1745,VALID,166,VALID,0,
2009-03-30, 02:23:04,VALID,1007.93,VALID,0,VALID,85.6143,VALID,0,VALID,22.1533,VALID,166,VALID,0,
2009-03-30, 02:24:04,VALID,1007.93,VALID,0,VALID,85.6067,VALID,0,VALID,22.1339,VALID,166,VALID,0,
2009-03-30, 02:25:04,VALID,1007.95,VALID,0,VALID,85.622,VALID,0,VALID,22.1745,VALID,166,VALID,0,
2009-03-30, 02:26:04,VALID,1007.95,VALID,0,VALID,85.6143,VALID,0,VALID,22.1355,VALID,166,VALID,0,
2009-03-30, 02:27:04,VALID,1007.94,VALID,0,VALID,85.6067,VALID,0,VALID,22.1355,VALID,166,VALID,0,
2009-03-30, 02:28:04,VALID,1007.96,VALID,0,VALID,85.5991,VALID,0,VALID,22.1355,VALID,60,VALID,0,
2009-03-30, 02:29:04,VALID,1007.97,VALID,0,VALID,85.622,VALID,0,VALID,22.1161,VALID,46,VALID,0,
2009-03-30, 02:30:04,VALID,1007.96,VALID,0,VALID,85.6067,VALID,0,VALID,22.0771,VALID,46,VALID,0,
2009-03-30, 02:31:04,VALID,1007.94,VALID,0,VALID,85.5991,VALID,0,VALID,22.0771,VALID,46,VALID,0,
2009-03-30, 02:32:04,VALID,1007.95,VALID,0,VALID,85.622,VALID,0,VALID,22.0382,VALID,46,VALID,0,
2009-03-30, 02:33:04,VALID,1007.91,VALID,0,VALID,85.6067,VALID,0,VALID,22.0576,VALID,46,VALID,0,
2009-03-30, 02:34:04,VALID,1007.92,VALID,0,VALID,85.6067,VALID,0,VALID,22.0187,VALID,46,VALID,0,
2009-03-30, 02:35:04,VALID,1007.9,VALID,0,VALID,85.6143,VALID,0,VALID,21.9992,VALID,46,VALID,0,
2009-03-30, 02:36:04,VALID,1007.9,VALID,0,VALID,85.6067,VALID,0,VALID,21.9797,VALID,46,VALID,0,
2009-03-30, 02:37:04,VALID,1007.92,VALID,0,VALID,85.622,VALID,0,VALID,21.9603,VALID,46,VALID,0,
2009-03-30, 02:38:04,VALID,1007.89,VALID,0,VALID,85.6143,VALID,0,VALID,21.9408,VALID,46,VALID,0,
2009-03-30, 02:39:04,VALID,1007.89,VALID,0,VALID,85.622,VALID,0,VALID,21.9408,VALID,46,VALID,0,
2009-03-30, 02:40:04,VALID,1007.89,VALID,0,VALID,85.6296,VALID,0,VALID,21.9603,VALID,35,VALID,0,
2009-03-30, 02:41:04,VALID,1007.86,VALID,0,VALID,85.6143,VALID,0,VALID,21.9408,VALID,35,VALID,0,
2009-03-30, 02:42:04,VALID,1007.86,VALID,0,VALID,85.6143,VALID,0,VALID,21.9213,VALID,35,VALID,0,
2009-03-30, 02:43:04,VALID,1007.88,VALID,0,VALID,85.6372,VALID,0,VALID,21.9603,VALID,35,VALID,0,
2009-03-30, 02:44:04,VALID,1007.83,VALID,0,VALID,85.6601,VALID,0,VALID,21.9603,VALID,35,VALID,0,
2009-03-30, 02:45:04,VALID,1007.85,VALID,0,VALID,85.6296,VALID,0.105969,VALID,21.9586,VALID,35,VALID,0,
2009-03-30, 02:46:04,VALID,1007.85,VALID,0,VALID,85.6601,VALID,0,VALID,21.9391,VALID,35,VALID,0,
2009-03-30, 02:47:04,VALID,1007.87,VALID,0,VALID,85.6753,VALID,0,VALID,21.9603,VALID,35,VALID,0,
2009-03-30, 02:48:04,VALID,1007.83,VALID,0,VALID,85.6601,VALID,0,VALID,21.9603,VALID,35,VALID,0,
2009-03-30, 02:49:04,VALID,1007.86,VALID,0,VALID,85.6677,VALID,0,VALID,21.9196,VALID,35,VALID,0,
2009-03-30, 02:50:04,VALID,1007.84,VALID,0,VALID,85.6677,VALID,0.105969,VALID,21.9408,VALID,35,VALID,0,
2009-03-30, 02:51:04,VALID,1007.8,VALID,0,VALID,85.6601,VALID,0,VALID,21.9196,VALID,35,VALID,0,
2009-03-30, 02:52:04,VALID,1007.81,VALID,0,VALID,85.6753,VALID,0,VALID,21.8985,VALID,35,VALID,0,
2009-03-30, 02:53:04,VALID,1007.77,VALID,0,VALID,85.683,VALID,0,VALID,21.9196,VALID,35,VALID,0,
2009-03-30, 02:54:04,VALID,1007.73,VALID,0,VALID,85.6753,VALID,0,VALID,21.9391,VALID,35,VALID,0,
2009-03-30, 02:55:04,VALID,1007.72,VALID,0,VALID,85.6906,VALID,0,VALID,21.9391,VALID,35,VALID,0,
2009-03-30, 02:56:04,VALID,1007.7,VALID,0,VALID,85.683,VALID,0,VALID,21.9391,VALID,35,VALID,0,
2009-03-30, 02:57:04,VALID,1007.67,VALID,0,VALID,85.6982,VALID,0,VALID,21.9408,VALID,35,VALID,0,
2009-03-30, 02:58:04,VALID,1007.65,VALID,0,VALID,85.7211,VALID,0,VALID,21.9213,VALID,35,VALID,0,
2009-03-30, 02:59:04,VALID,1007.63,VALID,0,VALID,85.7058,VALID,0,VALID,21.9002,VALID,35,VALID,0,
2009-03-30, 03:00:04,VALID,1007.66,VALID,0,VALID,85.7135,VALID,0,VALID,21.8807,VALID,35,VALID,0,
2009-03-30, 03:01:04,VALID,1007.67,VALID,0,VALID,85.7211,VALID,0,VALID,21.9002,VALID,35,VALID,0,
2009-03-30, 03:02:04,VALID,1007.68,VALID,0,VALID,85.7211,VALID,0,VALID,21.9213,VALID,35,VALID,0,
2009-03-30, 03:03:04,VALID,1007.69,VALID,0,VALID,85.7211,VALID,0.105969,VALID,21.9213,VALID,35,VALID,0,
2009-03-30, 03:04:04,VALID,1007.66,VALID,0,VALID,85.744,VALID,0,VALID,21.9213,VALID,35,VALID,0,
2009-03-30, 03:05:04,VALID,1007.68,VALID,0,VALID,85.7516,VALID,0,VALID,21.9018,VALID,35,VALID,0,
2009-03-30, 03:06:04,VALID,1007.69,VALID,0,VALID,85.7592,VALID,0,VALID,21.923,VALID,35,VALID,0,
2009-03-30, 03:07:04,VALID,1007.71,VALID,0,VALID,85.744,VALID,0,VALID,21.9018,VALID,35,VALID,0,
2009-03-30, 03:08:04,VALID,1007.69,VALID,0,VALID,85.7592,VALID,0,VALID,21.9002,VALID,35,VALID,0,
2009-03-30, 03:09:04,VALID,1007.69,VALID,0,VALID,85.7592,VALID,0,VALID,21.9018,VALID,35,VALID,0,
2009-03-30, 03:10:04,VALID,1007.69,VALID,0,VALID,85.7668,VALID,0,VALID,21.9002,VALID,35,VALID,0,
2009-03-30, 03:11:04,VALID,1007.71,VALID,0,VALID,85.7592,VALID,0,VALID,21.8807,VALID,35,VALID,0,
2009-03-30, 03:12:04,VALID,1007.74,VALID,0,VALID,85.7821,VALID,0,VALID,21.8807,VALID,35,VALID,0,
2009-03-30, 03:13:04,VALID,1007.72,VALID,0,VALID,85.7668,VALID,0,VALID,21.9213,VALID,35,VALID,0,
2009-03-30, 03:14:04,VALID,1007.72,VALID,0,VALID,85.7821,VALID,0,VALID,21.9002,VALID,35,VALID,0,
2009-03-30, 03:15:04,VALID,1007.74,VALID,0,VALID,85.7897,VALID,0,VALID,21.9213,VALID,35,VALID,0,
2009-03-30, 03:16:04,VALID,1007.73,VALID,0,VALID,85.7821,VALID,0,VALID,21.9002,VALID,35,VALID,0,
2009-03-30, 03:17:04,VALID,1007.76,VALID,0,VALID,85.7897,VALID,0,VALID,21.9002,VALID,35,VALID,0,
2009-03-30, 03:18:04,VALID,1007.79,VALID,0,VALID,85.7974,VALID,0,VALID,21.9213,VALID,35,VALID,0,
2009-03-30, 03:19:04,VALID,1007.78,VALID,0,VALID,85.7974,VALID,0,VALID,21.9002,VALID,35,VALID,0,
2009-03-30, 03:20:04,VALID,1007.78,VALID,0,VALID,85.805,VALID,0,VALID,21.9002,VALID,35,VALID,0,
2009-03-30, 03:21:04,VALID,1007.78,VALID,0,VALID,85.805,VALID,0.105969,VALID,21.9196,VALID,35,VALID,0,
2009-03-30, 03:22:04,VALID,1007.77,VALID,0,VALID,85.8126,VALID,0,VALID,21.9603,VALID,35,VALID,0,
2009-03-30, 03:23:04,VALID,1007.75,VALID,0,VALID,85.8202,VALID,0,VALID,21.9797,VALID,36,VALID,0,
2009-03-30, 03:24:04,VALID,1007.74,VALID,0,VALID,85.8279,VALID,0,VALID,21.9797,VALID,36,VALID,0,
2009-03-30, 03:25:04,VALID,1007.72,VALID,0,VALID,85.8202,VALID,0,VALID,21.9797,VALID,36,VALID,0,
2009-03-30, 03:26:04,VALID,1007.74,VALID,0,VALID,85.8431,VALID,0,VALID,21.9797,VALID,36,VALID,0,
2009-03-30, 03:27:04,VALID,1007.74,VALID,0,VALID,85.8355,VALID,0,VALID,21.9797,VALID,36,VALID,0,
2009-03-30, 03:28:04,VALID,1007.73,VALID,0,VALID,85.8279,VALID,0,VALID,21.9586,VALID,36,VALID,0,
2009-03-30, 03:29:04,VALID,1007.7,VALID,0,VALID,85.8355,VALID,0,VALID,21.9391,VALID,36,VALID,0,
2009-03-30, 03:30:04,VALID,1007.7,VALID,0,VALID,85.8431,VALID,0,VALID,21.9603,VALID,36,VALID,0,
2009-03-30, 03:31:04,VALID,1007.7,VALID,0,VALID,85.8431,VALID,0.105969,VALID,21.9797,VALID,36,VALID,0,
2009-03-30, 03:32:04,VALID,1007.68,VALID,0,VALID,85.8431,VALID,0,VALID,21.9975,VALID,36,VALID,0,
2009-03-30, 03:33:04,VALID,1007.65,VALID,0,VALID,85.8584,VALID,0.105969,VALID,21.9781,VALID,36,VALID,0,
2009-03-30, 03:34:04,VALID,1007.64,VALID,0,VALID,85.866,VALID,0,VALID,21.9992,VALID,36,VALID,0,
2009-03-30, 03:35:04,VALID,1007.66,VALID,0,VALID,85.8584,VALID,0.105969,VALID,21.9992,VALID,36,VALID,0,
2009-03-30, 03:36:04,VALID,1007.65,VALID,0,VALID,85.866,VALID,0,VALID,21.9781,VALID,36,VALID,0,
2009-03-30, 03:37:04,VALID,1007.65,VALID,0,VALID,85.8812,VALID,0,VALID,22.0187,VALID,36,VALID,0,
2009-03-30, 03:38:04,VALID,1007.63,VALID,0,VALID,85.8584,VALID,0,VALID,22.017,VALID,36,VALID,0,
2009-03-30, 03:39:04,VALID,1007.63,VALID,0,VALID,85.8812,VALID,0.105969,VALID,22.0382,VALID,36,VALID,0,
2009-03-30, 03:40:04,VALID,1007.61,VALID,0,VALID,85.8889,VALID,0,VALID,22.0365,VALID,36,VALID,0,
2009-03-30, 03:41:04,VALID,1007.61,VALID,0,VALID,85.8812,VALID,0,VALID,22.0365,VALID,36,VALID,0,
2009-03-30, 03:42:04,VALID,1007.58,VALID,0,VALID,85.8736,VALID,0,VALID,22.056,VALID,36,VALID,0,
2009-03-30, 03:43:04,VALID,1007.57,VALID,0,VALID,85.866,VALID,0,VALID,22.0576,VALID,36,VALID,0,
2009-03-30, 03:44:04,VALID,1007.55,VALID,0,VALID,85.8889,VALID,0,VALID,22.0365,VALID,36,VALID,0,
2009-03-30, 03:45:04,VALID,1007.52,VALID,0,VALID,85.8736,VALID,0,VALID,21.9975,VALID,36,VALID,0,
2009-03-30, 03:46:04,VALID,1007.55,VALID,0,VALID,85.8889,VALID,0,VALID,21.9408,VALID,36,VALID,0,
2009-03-30, 03:47:04,VALID,1007.54,VALID,0,VALID,85.8812,VALID,0,VALID,21.9002,VALID,36,VALID,0,
2009-03-30, 03:48:04,VALID,1007.58,VALID,0,VALID,85.8889,VALID,0,VALID,21.9213,VALID,36,VALID,0,
2009-03-30, 03:49:04,VALID,1007.61,VALID,0,VALID,85.8889,VALID,0,VALID,21.9213,VALID,36,VALID,0,
2009-03-30, 03:50:04,VALID,1007.61,VALID,0,VALID,85.8965,VALID,0,VALID,21.9213,VALID,39,VALID,0,
2009-03-30, 03:51:04,VALID,1007.63,VALID,0,VALID,85.9194,VALID,0,VALID,21.9603,VALID,203,VALID,0,
2009-03-30, 03:52:04,VALID,1007.66,VALID,0,VALID,85.8965,VALID,0,VALID,21.9196,VALID,203,VALID,0,
2009-03-30, 03:53:04,VALID,1007.65,VALID,0,VALID,85.9041,VALID,0,VALID,21.9213,VALID,203,VALID,0,
2009-03-30, 03:54:04,VALID,1007.65,VALID,0,VALID,85.9041,VALID,0,VALID,21.9018,VALID,203,VALID,0,
2009-03-30, 03:55:04,VALID,1007.65,VALID,0,VALID,85.9117,VALID,0,VALID,21.8824,VALID,203,VALID,0,
2009-03-30, 03:56:04,VALID,1007.65,VALID,0,VALID,85.9041,VALID,0,VALID,21.9018,VALID,203,VALID,0,
2009-03-30, 03:57:04,VALID,1007.7,VALID,0,VALID,85.9041,VALID,0,VALID,21.8629,VALID,203,VALID,0,
2009-03-30, 03:58:04,VALID,1007.74,VALID,0,VALID,85.9117,VALID,0,VALID,21.8028,VALID,203,VALID,0,
2009-03-30, 03:59:04,VALID,1007.77,VALID,0,VALID,85.9194,VALID,0,VALID,21.7655,VALID,203,VALID,0,